Regional Weather Roundup
Issued by NWS

Home | Current Version | Previous Version | Text Only | Print | Product List | Glossary Off
Versions: 1 2 3 4 5 6 7 8 9 10 11 12 13 14 15 16 17 18 19 20 21 22 23 24 25 26 27 28 29 30 31 32 33 34 35 36 37 38 39 40 41 42 43 44 45 46 47 48 49 50

000
ASUS43 KDMX 231901
RWRIA

WEATHER ROUNDUP FOR IOWA
NATIONAL WEATHER SERVICE DES MOINES IA
100 PM CST THU FEB 23 2017

NOTE: "FAIR" INDICATES FEW OR NO CLOUDS BELOW 12,000 FEET WITH NO
SIGNIFICANT WEATHER AND/OR OBSTRUCTIONS TO VISIBILITY.

* - THESE STATIONS ARE NOT NWS STATIONS...THUS NOT UNDER NWS
QUALITY CONTROL.  THEY ALSO DO NOT REPORT WEATHER SUCH
AS PRECIPITATION OR FOG.

IAZ001>003-012>014-020>022-031>034-043>046-232000-
   NORTHWEST IOWA

CITY           SKY/WX    TMP DP  RH WIND       PRES   REMARKS
CARROLL *      CLOUDY    39  37  93 NE24G30   29.69F WCI  28
CHEROKEE *     CLOUDY    35  32  88 NE14G25   29.76F WCI  26
DENISON *      CLOUDY    37  34  87 NE20G30   29.67F WCI  27
LE MARS *      MIX PCPN  34  30  86 NE21G28   29.78F WCI  22
ORANGE CITY *  CLOUDY    34  30  86 NE15G22   29.79F WCI  24
SHELDON *      CLOUDY    32  32 100 NE24      29.79F WCI  19
SIOUX CITY     LGT RAIN  38  31  76 N18G28    29.75F WCI  28
SPENCER        CLOUDY    34  30  85 NE21      29.81F WCI  22
STORM LAKE *   MIX PCPN  34  32  93 NE28      29.72F WCI  20
$$

IAZ055>058-069>071-079>083-090>094-232000-
   SOUTHWEST IOWA

CITY           SKY/WX    TMP DP  RH WIND       PRES   REMARKS
ATLANTIC *     CLOUDY    41  37  87 NE21G26   29.64F
CLARINDA *     CLOUDY    48  39  71 E20G25    29.60F
COUNCIL BLFS *   N/A     41  37  87 NE20G26   29.63F
CRESTON *      CLOUDY    43  39  87 E24G31    29.63F
HARLAN  *      MIX PCPN  39  39 100 NE16G26   29.69F WCI  30
LAMONI         CLOUDY    48  42  80 NE17G25   29.60F
RED OAK *      CLOUDY    46  37  71 E21       29.62F
SHENANDOAH *   CLOUDY    48  39  71 NE17G24   29.60F
$$

IAZ047>049-059>061-072>074-084-232000-
   CENTRAL IOWA

CITY           SKY/WX    TMP DP  RH WIND       PRES   REMARKS
AMES           CLOUDY    42  37  82 E16G23    29.70F
ANKENY *       MIX PCPN  41  37  87 NE10G20   29.70F
BOONE *        CLOUDY    39  37  93 NE20      29.69F WCI  30
CHARITON *     CLOUDY    46  39  76 E18       29.66F
DES MOINES     CLOUDY    43  38  82 E13G20    29.70F
GRINNELL*      RAIN      42  37  82 NE17      29.71F
KNOXVILLE *    CLOUDY    43  37  81 E13G24    29.69S
MARSHALLTOWN   CLOUDY    43  36  76 NE14      29.73F
NEWTON *       CLOUDY    43  37  81 NE15G23   29.69F
PELLA *        CLOUDY    44  38  80 E10       29.71F
PERRY *        LGT RAIN  40  37  89 NE12G22   29.68F WCI  32
$$

IAZ004>006-015-016-023>025-035-036-232000-
   NORTH CENTRAL IOWA

CITY           SKY/WX    TMP DP  RH WIND       PRES   REMARKS
ALGONA *       CLOUDY    36  34  93 NE17G24   29.79F WCI  25
CLARION *      CLOUDY    37  37 100 NE20G28   29.74F WCI  27
ESTHERVILLE    CLOUDY    32  30  92 N15       29.83F WCI  22
FORT DODGE *   CLOUDY    37  30  75 NE14G21   29.75F WCI  29
MASON CITY     CLOUDY    38  33  82 NE15      29.80F WCI  29
FOREST CITY *  CLOUDY    36  32  87 NE12      29.81F WCI  27
WEBSTER CITY * CLOUDY    39  36  87 NE22      29.70F WCI  29
IOWA FALLS *   CLOUDY    42  36  79 NE16      29.75F
$$

IAZ007>011-017>019-026>030-037>042-050>054-066-232000-
   NORTHEAST IOWA

CITY           SKY/WX    TMP DP  RH WIND       PRES   REMARKS
CEDAR RAPIDS   CLOUDY    44  38  79 E14       29.72F
CHARLES CITY * CLOUDY    41  37  87 NE14      29.81S
CLINTON *      CLOUDY    46  40  79 NE16      29.77F
DECORAH *      CLOUDY    43  32  65 NE9       29.81R
DUBUQUE        CLOUDY    44  36  73 E8        29.80F
MONTICELLO *   PTSUNNY   45  36  70 NE9G16    29.76F
OELWEIN *      CLOUDY    43  36  75 E13       29.78F
WATERLOO       CLOUDY    44  34  67 NE16      29.75F
$$

IAZ064-065-067-068-078-232000-
   EAST CENTRAL IOWA

CITY           SKY/WX    TMP DP  RH WIND       PRES   REMARKS
DAVENPORT      LGT RAIN  47  40  76 NE14      29.75F
IOWA CITY        N/A     46  37  71 NE15      29.74F
MUSCATINE *    CLOUDY    46  39  76 NE15      29.72F
QUAD CITIES    CLOUDY    50  39  66 NE15      29.74F
$$

IAZ062-063-075>077-085>089-095>099-232000-
   SOUTHEAST IOWA

CITY           SKY/WX    TMP DP  RH WIND       PRES   REMARKS
BURLINGTON     CLOUDY    46  43  89 E9        29.71F
FAIRFIELD *    CLOUDY    45  39  81 E9        29.72R
KEOKUK *       CLOUDY    46  43  87 E15       29.69F
CENTERVILLE *  LGT RAIN  43  41  93 E16       29.69F
OTTUMWA        CLOUDY    45  40  82 E16       29.70F
WASHINGTON *   CLOUDY    46  41  81 NE13G18   29.73F
$$

ABBREVIATIONS USED IN REMARKS
   TC - TEMPERATURES IN CELSIUS
  WCI - WIND CHILL INDEX
   HX - HEAT INDEX
  VSB - VISIBILITY
$$




USA.gov is the U.S. government's official web portal to all federal, state and local government web resources and services.